sat.trackr.live / text

‹ back to catalog

ICEYE-X56

NORAD 64574 · 2025-135AY

PAYLOAD ACTIVE UNKNOWN

§ Identity

Operator
Country
FIN
Launch date
2025-06-23
Launch site
AFWTR
Launch vehicle
Mass (kg)
RCS (m²)

External: N2YO · Heavens-Above · Gunter

§ Orbital elements

Epoch: 2026-09-21T21:24:48.819744Z

Period
96.25 min
Inclination
97.7827°
Eccentricity
0.0002636
Mean motion
14.96082225 rev/d
Perigee alt
577.2 km
Apogee alt
580.8 km
Semi-major
6,957.2 km
B*
1.2060e-4
RAAN
19.1660°
Arg perigee
42.4057°
Mean anomaly
317.7367°
Rev number
6,838

§ Raw data

ICEYE-X561 64574U 25135AY  26264.89223171  .00001297  00000+0  12060-3 0  99952 64574  97.7827  19.1660 0002636  42.4057 317.7367 14.96082225 68388

JSON: /api/v1/satellites/64574 · /tle

For live sub-satellite position, see the globe view (requires WebGL).

§ Visibility from observer

Set your observer location to see the next 7 days of passes ≥ 10°. The values pass through the URL so the page stays shareable.

No JS? Fill the form by hand. The geolocation button needs JavaScript.

§ Radio — SatNOGS DB

ModeDescriptionDownlinkUplink
S-band telemetry 2.270 GHz

1 transmitter · refreshed weekly from db.satnogs.org